Theta_e
367 368 368 367 367 366 365 363 361 360 360 360 361 361 359 358 356 354 352 350 349 348 346 344 344 343 343 342 342 341 340 339 337 337 338 339 338 337 337 336 336 335 335 334 334 334 334 334 334 334 333 334 334 333 332 333 333 334 335 336 335 335 335 334 333 331 331 330 330 329 329 329 329 330 331 330 329 329 330 331 331 331 331 330 330
367 368 368 367 367 366 365 363 361 360 360 360 361 360 358 357 355 354 351 349 348 346 345 343 342 343 343 343 342 341 341 340 338 337 338 339 339 338 337 337 336 336 335 335 335 334 334 335 334 334 333 333 333 333 332 331 331 331 331 332 333 332 332 332 332 331 330 329 329 329 329 329 329 330 330 330 330 330 331 331 331 330 330 330 330
366 368 368 367 367 366 364 363 361 359 359 360 360 359 357 356 355 354 351 349 347 345 344 343 343 344 344 342 342 342 341 341 339 337 338 339 339 337 336 336 336 336 336 336 335 335 334 335 334 334 333 333 332 332 331 331 331 331 331 331 332 332 331 332 332 332 330 329 329 329 329 329 328 330 330 330 331 331 331 331 331 330 330 330 329
364 367 368 367 366 366 364 362 361 359 359 359 359 358 357 356 355 353 349 347 347 344 342 344 344 345 345 343 342 342 341 341 339 337 339 340 339 338 337 336 336 336 336 336 335 335 334 334 333 333 332 332 332 332 332 332 333 333 333 333 334 334 333 333 334 334 333 332 330 329 329 330 330 330 330 330 330 330 330 330 331 331 330 330 330
362 366 367 366 366 366 364 362 361 360 359 358 357 356 355 353 353 353 348 345 344 341 340 342 344 345 344 343 343 343 342 340 338 337 339 340 340 338 337 336 336 336 336 336 335 335 334 334 333 333 332 332 332 332 333 334 335 335 335 335 335 335 335 335 336 335 335 334 333 331 330 331 330 330 330 330 329 329 329 329 329 330 329 330 329
361 364 366 366 365 365 364 362 361 359 357 356 355 354 352 349 350 352 348 345 341 338 336 338 342 344 342 341 343 343 340 339 339 340 340 340 340 339 337 335 335 336 336 335 335 335 334 334 333 332 332 332 332 332 333 334 336 337 337 337 336 336 336 336 337 336 336 334 334 333 330 329 329 329 329 330 329 329 329 328 328 328 328 328 328
362 363 365 366 365 365 365 363 360 357 356 354 352 350 349 349 349 350 350 347 340 336 336 336 338 342 342 341 341 341 339 339 340 339 338 338 340 340 338 335 334 335 336 335 335 334 334 334 334 333 333 333 334 333 333 334 335 336 337 338 338 337 336 336 335 334 334 333 334 334 331 327 327 328 329 330 330 330 329 328 327 328 328 328 327
364 364 364 365 365 365 365 362 359 356 354 350 349 349 349 347 347 349 350 349 342 337 337 337 336 339 341 341 339 338 337 337 335 334 334 335 337 338 339 337 335 335 335 335 335 334 334 333 333 332 332 332 333 334 334 334 335 336 336 336 336 335 334 333 331 330 331 332 332 332 329 326 327 328 328 329 329 328 328 327 327 327 328 327 327
365 365 365 365 366 365 364 360 357 355 351 348 348 349 348 346 346 347 348 347 344 340 339 337 336 337 339 339 337 334 332 330 329 331 332 334 335 336 338 339 336 334 335 335 335 335 335 334 332 331 330 331 333 332 331 330 331 332 333 333 333 333 331 331 331 331 332 332 331 329 328 327 327 327 328 328 328 327 326 327 328 327 327 326 326
366 366 366 366 365 364 361 357 356 354 350 347 348 348 347 346 346 346 344 343 341 339 339 338 336 336 337 337 335 333 329 326 326 329 332 333 333 334 337 339 337 335 335 335 335 335 335 335 334 332 331 331 331 329 327 326 327 327 328 329 329 330 330 330 330 331 331 331 330 330 330 328 327 326 327 327 327 326 327 328 328 326 326 327 326
367 366 366 366 364 363 360 357 356 354 349 348 349 349 347 345 345 343 342 341 339 339 340 339 337 337 337 336 334 332 330 326 323 326 331 332 332 333 335 337 337 335 335 336 336 336 336 336 337 337 337 335 332 329 327 327 327 326 326 326 326 327 329 329 329 329 329 329 329 328 329 328 327 327 327 326 326 327 328 329 328 327 327 328 326
367 367 366 365 364 363 360 357 356 352 349 348 349 349 347 344 343 343 342 341 341 340 341 340 339 338 336 336 334 331 329 326 322 324 330 331 330 331 334 336 337 335 335 335 335 336 336 337 339 341 340 337 333 331 331 330 329 327 327 327 326 325 326 327 328 328 328 328 328 327 327 327 327 328 328 327 328 328 329 329 328 327 327 327 326
367 368 368 366 365 364 360 358 356 352 349 348 348 348 346 344 344 344 343 343 341 340 340 340 339 338 337 337 334 330 328 325 321 325 330 328 325 328 331 334 336 335 335 335 335 337 339 341 342 341 339 336 333 333 333 333 332 331 331 330 328 326 326 327 327 328 328 328 328 328 328 328 329 329 329 328 328 328 329 328 326 326 326 325 325
367 368 368 367 365 363 360 358 355 353 350 348 347 347 346 346 346 345 344 343 341 340 339 339 340 339 336 334 332 331 330 326 323 328 331 325 324 329 331 333 335 336 336 336 336 338 341 343 342 340 338 336 335 335 336 335 335 334 333 330 328 327 327 327 327 327 328 328 329 329 328 328 328 329 328 327 326 326 325 325 324 324 324 324 324
366 368 368 367 365 363 360 358 356 354 351 349 347 347 346 347 347 345 344 343 342 341 339 340 342 339 333 331 333 334 330 325 327 330 327 322 326 332 334 334 335 335 335 336 337 339 341 340 338 337 337 336 335 335 335 334 333 333 331 329 328 327 326 326 326 326 327 327 327 327 326 325 325 324 324 323 323 323 322 322 323 323 323 323 323
367 368 367 366 364 362 360 359 357 355 352 350 348 347 347 348 346 344 344 343 342 341 340 341 341 338 335 334 333 331 327 325 328 329 324 322 327 331 333 334 333 333 335 336 338 339 338 334 333 334 336 335 334 333 331 330 329 329 328 328 327 327 326 325 325 324 323 324 324 323 323 322 321 320 320 320 320 320 321 321 321 322 322 323 323
367 367 367 365 363 361 360 359 357 355 353 351 349 348 348 348 346 345 344 342 341 341 341 340 338 336 336 334 329 328 329 327 326 328 326 325 328 329 331 333 333 334 334 335 337 339 336 332 332 334 335 335 334 332 329 325 325 327 328 327 327 327 326 325 324 323 322 322 321 321 320 320 319 319 320 320 320 320 320 320 321 321 322 322 322
367 367 367 365 362 360 360 359 357 355 354 352 350 349 348 347 346 345 343 342 341 340 339 337 335 334 334 333 330 331 331 325 322 327 329 326 327 329 331 333 334 333 333 333 336 337 334 332 332 333 334 334 332 330 326 323 323 326 327 327 327 326 325 324 323 322 321 320 320 320 320 319 320 320 320 320 320 320 320 321 320 320 321 321 320
367 367 366 364 362 359 358 358 356 354 354 352 350 349 348 346 344 343 341 339 338 337 334 332 330 331 333 335 334 333 332 327 325 328 328 325 326 330 332 334 333 332 332 333 334 334 333 333 332 330 330 331 329 327 324 321 322 326 327 326 325 325 324 323 322 321 320 320 319 320 319 320 320 320 320 320 320 320 320 321 321 320 320 320 319
367 365 364 363 361 358 357 356 355 353 353 352 350 349 347 345 343 341 339 337 334 333 330 327 327 330 333 335 336 335 335 334 330 327 324 323 325 329 331 332 332 331 331 330 331 332 333 334 333 329 326 326 325 323 321 319 320 324 325 324 324 324 323 322 321 320 319 319 319 319 319 319 319 319 319 319 319 319 319 319 319 319 318 318 318
365 363 363 362 360 357 355 354 353 353 351 350 348 347 345 344 341 339 337 335 332 330 329 328 330 332 333 336 337 336 335 334 331 327 324 325 329 331 332 332 330 330 330 329 328 330 332 333 332 329 325 323 321 320 319 318 318 320 323 323 322 322 321 319 319 318 318 318 319 318 318 318 318 318 318 318 318 317 317 317 316 316 316 315 315
362 361 361 359 356 355 353 352 352 350 348 347 346 344 342 341 339 337 336 335 333 332 332 331 332 333 333 335 335 334 333 334 334 331 329 331 333 332 331 330 329 329 330 329 328 329 331 331 330 328 324 321 319 318 319 318 318 319 320 320 319 319 317 316 317 318 317 317 317 317 317 317 317 317 317 317 317 316 315 314 314 313 314 313 314
359 358 358 355 353 351 350 350 349 346 344 344 343 341 339 338 337 337 336 336 335 335 335 334 333 333 334 335 335 334 335 336 335 334 333 334 333 331 331 330 330 330 331 331 330 330 330 329 328 326 322 319 318 318 318 318 318 318 318 318 317 316 314 314 316 317 317 317 317 316 316 316 316 316 316 316 315 314 314 313 313 313 314 313 313
356 356 354 352 350 348 347 347 345 343 342 341 340 339 338 337 337 337 336 337 337 336 335 335 334 333 335 337 337 335 335 334 333 333 334 333 331 330 330 330 328 328 329 329 329 330 330 328 325 323 320 318 318 318 317 316 317 317 317 316 315 314 314 315 317 316 316 316 316 316 316 315 315 315 314 314 314 313 313 314 314 314 314 313 314
355 353 352 350 348 346 345 344 343 341 340 339 339 338 336 336 337 337 337 337 336 335 335 335 333 333 337 339 337 334 333 332 332 333 333 331 330 329 329 329 328 325 326 328 329 327 326 324 322 320 318 317 317 317 316 317 317 316 316 314 313 313 315 316 316 316 316 316 315 315 314 314 313 313 312 313 314 314 314 314 313 313 313 313 314
353 351 349 347 345 344 344 343 341 340 339 338 338 336 335 335 336 336 336 336 334 334 335 335 334 335 338 339 336 334 333 332 331 332 331 329 329 329 328 328 325 323 324 326 325 322 321 320 319 318 317 317 317 318 318 318 317 316 315 313 313 314 316 316 316 315 315 314 313 313 312 311 311 311 312 313 313 313 312 312 312 312 313 314 315
350 349 347 345 344 343 343 341 341 340 339 337 336 336 335 335 335 335 335 334 335 335 336 337 337 337 337 336 335 334 332 330 330 331 330 328 328 328 327 325 322 321 322 323 322 321 320 319 318 318 317 316 316 317 318 317 317 316 316 315 314 315 315 314 313 312 312 311 311 311 311 311 311 312 312 312 311 310 310 311 311 312 313 313 315
349 347 345 344 343 343 342 341 340 339 338 338 337 337 336 335 336 336 335 335 335 336 338 339 339 337 336 335 335 334 333 332 333 333 332 329 328 327 326 324 322 323 324 324 324 323 322 320 319 319 319 318 318 318 318 318 317 316 315 315 314 314 313 312 311 310 311 311 311 311 311 311 312 311 310 309 309 309 309 310 311 312 313 314 315
348 346 344 343 342 341 341 340 339 338 339 338 337 336 336 336 336 336 336 336 336 336 338 340 337 336 336 335 335 335 334 333 334 334 332 330 328 327 327 326 325 325 324 323 323 323 322 322 321 320 320 319 319 319 318 317 317 316 316 315 313 313 312 311 311 311 311 310 310 310 310 310 310 309 308 308 308 308 308 309 311 312 313 314 316
347 345 344 343 342 341 341 340 340 339 339 338 336 335 334 336 336 335 334 336 337 337 337 337 336 334 334 334 335 335 333 333 334 333 330 328 326 324 324 324 324 324 322 321 321 322 322 321 321 320 320 319 319 318 317 316 316 316 315 314 313 312 311 311 310 310 308 308 308 308 309 309 308 307 307 307 308 308 308 309 311 312 314 315 316
346 344 343 342 341 341 340 340 340 340 339 338 337 335 334 333 334 334 334 334 335 333 332 332 332 332 332 333 333 332 332 334 333 329 326 323 321 320 320 320 320 321 321 320 321 321 321 320 320 320 319 318 317 316 316 316 315 315 315 314 313 312 311 310 309 307 305 306 307 308 308 307 306 307 307 307 307 307 307 309 311 313 314 315 316
345 344 343 342 341 340 340 339 339 340 339 338 336 336 335 333 331 330 331 332 332 331 329 329 329 329 330 331 330 328 330 331 328 324 322 321 320 319 319 319 320 320 320 320 321 321 320 319 319 319 318 317 317 316 315 315 315 314 314 313 312 312 311 309 306 304 304 306 307 306 306 306 306 306 306 306 306 306 307 309 310 312 314 315 315
345 344 343 342 341 340 339 339 338 338 339 338 336 336 336 335 332 329 327 327 328 327 326 326 327 327 328 328 327 327 328 326 323 321 320 320 319 319 319 320 320 320 319 319 320 320 319 318 317 317 317 316 316 316 315 315 314 313 312 312 311 310 309 306 304 305 306 307 306 305 305 305 305 305 305 306 306 306 307 308 310 312 313 314 314
344 343 343 343 343 341 341 340 338 337 337 337 336 336 335 335 334 332 328 326 325 324 323 323 324 326 326 325 325 325 324 322 320 320 320 319 319 319 319 318 318 317 316 317 319 319 318 317 317 316 316 316 315 315 314 314 313 312 311 310 310 308 306 304 304 306 306 306 305 305 305 304 304 305 305 305 305 306 307 308 309 311 312 312 313
344 343 343 343 342 341 340 340 339 338 337 337 337 336 335 334 334 332 330 330 329 328 324 322 321 322 322 321 321 321 320 320 320 319 318 317 316 316 316 316 316 315 315 316 317 318 317 317 316 316 316 315 315 314 313 313 312 311 310 309 308 305 303 303 304 305 306 305 305 305 304 304 304 305 305 305 305 306 307 307 308 311 312 312 312
342 340 341 341 339 338 338 339 339 339 338 338 336 334 334 333 332 331 331 331 331 331 328 322 319 319 319 319 319 319 318 318 317 316 314 313 312 313 316 318 318 318 317 317 317 317 316 316 316 316 315 315 314 313 312 311 310 310 309 307 304 302 302 303 304 305 305 305 305 304 304 304 304 305 304 304 305 306 306 306 307 310 311 311 311
336 335 336 336 336 336 338 338 338 337 337 336 335 334 333 332 330 330 331 331 331 331 329 323 319 318 317 317 317 317 317 315 314 312 311 310 309 312 317 320 319 318 318 317 317 316 316 315 315 315 314 313 312 311 310 310 309 309 307 304 302 302 302 302 302 303 304 305 305 305 304 304 304 304 304 304 305 306 305 306 307 309 310 311 312
335 335 336 336 335 335 336 336 335 334 333 333 333 333 331 331 331 330 330 330 331 331 330 325 322 322 320 317 315 315 314 312 311 310 309 309 310 313 317 319 318 318 318 317 316 316 315 315 314 314 313 312 311 310 309 309 308 307 304 302 301 302 302 301 302 304 306 306 305 304 304 303 304 304 304 304 305 305 305 306 307 308 309 311 313
334 333 333 333 334 334 334 335 333 331 331 331 332 331 330 331 332 331 330 331 331 331 330 327 326 325 324 318 314 313 313 312 313 313 312 312 313 315 317 318 318 317 317 316 316 315 315 314 313 313 312 311 310 309 308 308 307 305 302 300 301 303 303 303 304 305 305 304 303 304 303 303 303 303 303 304 304 304 305 306 307 307 308 310 312
334 333 330 330 332 334 334 334 332 331 330 331 331 331 332 332 332 331 331 331 331 330 329 328 327 327 325 320 316 315 315 316 317 316 315 315 316 316 317 318 317 317 317 316 315 314 314 313 313 312 311 310 309 308 307 306 305 302 300 300 301 303 304 303 303 303 303 303 303 303 303 303 303 303 303 304 304 304 305 306 306 306 307 308 311
336 335 332 331 332 333 333 332 332 332 332 332 331 332 332 331 331 331 330 330 330 330 329 328 327 326 325 321 317 316 317 319 319 318 318 318 318 318 318 318 317 317 317 315 314 314 314 313 312 311 310 309 308 307 306 304 302 300 299 300 301 302 302 303 304 303 303 303 302 302 302 302 302 302 303 304 304 304 305 305 306 306 307 308 311
335 335 334 332 332 332 332 332 332 332 332 332 332 332 332 331 331 330 329 329 329 328 327 326 326 325 324 321 317 316 318 320 320 319 319 319 318 318 319 318 317 317 316 314 314 314 313 312 311 310 309 308 307 305 304 302 300 299 298 300 301 302 302 303 303 303 302 302 302 301 302 302 302 302 303 303 304 304 305 305 306 306 306 308 310
335 334 334 333 333 332 332 332 332 332 332 333 332 331 331 330 329 329 328 327 327 326 325 325 324 323 322 320 316 315 317 320 320 320 319 319 319 319 318 317 317 316 315 314 313 313 312 311 310 309 308 307 306 304 302 300 298 297 298 299 301 302 302 302 302 302 302 301 301 301 301 302 302 302 303 303 304 304 304 305 305 306 306 308 310
334 334 333 333 333 333 332 333 332 332 330 329 329 328 328 328 328 327 327 326 325 325 324 324 323 323 321 317 315 314 316 319 320 320 319 319 319 318 317 317 316 315 314 313 312 312 311 310 309 308 307 305 304 302 300 298 296 296 297 299 300 300 301 301 301 301 301 300 300 301 301 301 302 302 302 302 303 304 304 305 305 305 306 307 308
333 333 333 332 332 332 332 331 330 329 327 327 327 327 327 326 326 326 325 324 323 323 323 323 323 322 321 319 317 316 318 319 320 319 319 319 318 317 317 316 315 314 313 312 311 311 310 309 308 307 306 304 302 300 298 297 296 295 296 297 298 299 300 300 300 300 300 300 300 300 300 301 301 302 302 302 303 303 304 304 305 305 305 306 307
332 331 330 330 330 330 330 328 327 327 327 327 326 326 325 324 324 324 323 322 322 322 322 322 322 321 321 320 320 319 319 319 319 319 319 318 318 317 316 315 313 312 311 311 310 310 309 308 308 307 305 304 302 300 298 297 296 295 295 295 296 297 298 299 299 299 299 300 300 300 300 301 301 301 301 302 303 303 304 304 304 305 305 305 305
330 329 328 328 328 328 328 327 326 325 325 325 324 324 323 323 323 322 322 321 320 320 320 320 320 320 320 320 320 320 320 319 319 319 318 318 317 317 315 313 311 310 310 310 310 309 308 307 307 306 305 303 302 300 298 298 297 296 296 295 295 295 296 297 297 299 300 300 300 300 300 301 301 301 301 302 303 303 303 304 304 304 304 305 304
327 327 327 327 326 326 326 325 324 323 323 322 322 321 321 321 321 321 320 320 319 318 318 318 318 318 319 319 319 319 319 318 318 318 318 317 317 316 314 312 311 310 310 309 309 308 308 307 307 305 304 303 301 300 299 299 298 297 297 296 295 295 294 292 293 297 299 299 299 300 301 301 301 301 301 302 303 303 303 303 303 304 304 304 304
326 326 326 326 325 325 325 323 322 322 322 321 320 319 319 319 319 319 319 318 318 317 317 317 317 317 317 317 318 318 318 318 318 317 317 317 316 315 313 312 310 309 310 309 309 308 308 307 306 305 304 303 302 301 300 299 299 298 298 297 296 294 292 290 290 292 294 296 298 300 301 301 301 301 301 302 303 303 302 302 302 303 304 304 303
325 325 325 324 324 323 323 322 321 321 320 319 319 319 319 319 319 318 318 317 317 317 317 317 317 316 316 316 316 317 317 317 317 316 316 316 315 314 313 311 310 309 309 309 309 308 308 307 306 305 304 303 302 301 300 300 299 299 299 297 296 295 293 291 289 290 292 294 297 300 300 300 300 301 301 302 302 302 302 301 302 303 303 303 303
323 323 322 322 322 322 321 320 320 320 319 318 318 319 318 317 317 317 316 315 315 315 315 316 316 316 316 316 316 316 316 317 316 316 316 316 315 313 312 311 310 310 309 309 309 308 308 307 306 305 304 303 302 301 300 300 300 299 298 297 296 295 294 291 289 289 291 293 295 298 300 301 301 301 301 301 300 301 301 302 301 302 302 302 302
Wind_Speed
27 26 26 26 25 25 26 25 24 25 24 23 23 21 20 20 20 19 20 20 18 19 20 19 18 18 17 16 16 15 15 15 14 13 13 13 11 10 10 11 12 12 11 10 10 10 10 11 12 12 12 12 12 12 11 10 10 11 11 11 11 11 11 12 13 14 17 18 17 16 16 16 17 17 17 17 16 16 16 17 17 18 18 18 19
28 26 26 26 26 25 25 25 26 26 24 25 24 21 21 24 24 22 22 21 20 20 20 20 20 20 18 16 15 15 16 15 14 13 13 13 12 11 11 12 12 12 11 11 10 10 10 12 12 12 12 12 12 11 11 10 10 11 11 11 12 13 12 13 14 14 16 18 19 18 17 17 17 17 17 18 18 17 16 17 18 18 18 18 19
28 27 25 25 25 25 25 25 26 26 27 28 25 22 22 25 26 25 22 19 19 21 20 19 20 20 19 18 18 17 16 15 15 14 13 13 12 11 12 12 12 12 12 11 11 10 11 12 12 12 11 11 11 11 11 11 12 12 13 12 13 14 14 14 15 16 16 17 19 20 19 18 17 17 17 17 18 18 17 17 17 18 18 19 19
27 26 26 25 25 25 26 27 27 28 29 28 25 23 22 21 22 24 21 15 17 22 20 19 21 20 19 21 21 19 17 16 15 14 14 13 12 12 12 12 12 12 12 12 11 11 11 12 12 12 11 11 11 11 11 11 12 13 13 13 13 15 15 14 15 16 17 18 18 19 20 19 18 17 16 17 17 18 17 17 18 18 19 19 20
26 26 25 25 26 27 29 29 28 30 30 27 24 21 16 13 16 22 23 19 20 24 23 24 25 22 22 23 21 19 19 17 16 15 14 12 12 12 13 13 13 13 13 13 12 12 12 13 13 12 12 12 11 11 11 12 13 13 13 14 14 14 15 15 15 15 17 18 18 18 18 18 18 18 16 17 17 17 17 17 18 19 19 20 20
26 25 25 25 27 29 30 29 28 30 28 20 15 14 14 15 19 24 28 28 29 28 28 31 29 26 27 26 21 19 19 18 18 16 14 12 12 13 14 14 14 14 14 13 13 13 13 14 14 13 13 13 12 12 12 12 13 13 14 14 15 15 15 15 14 14 16 18 19 20 18 17 18 18 17 17 17 17 17 18 18 19 19 20 21
24 24 24 24 26 28 28 27 26 24 21 18 19 21 22 24 25 28 32 34 35 33 33 35 33 30 30 27 24 23 21 20 19 17 15 14 14 14 15 15 15 15 14 14 14 14 14 14 15 14 14 14 13 13 13 13 13 13 14 14 14 14 15 15 15 15 16 17 18 19 19 18 18 19 19 18 18 18 18 18 19 19 19 20 22
22 23 22 22 23 24 24 21 19 18 19 24 28 25 26 30 32 36 40 41 42 39 36 37 36 33 30 28 27 27 24 23 21 19 17 17 17 17 15 15 16 16 15 15 15 15 15 15 15 16 15 15 14 14 13 12 12 12 13 14 14 15 17 17 17 17 17 17 18 19 20 20 19 18 19 18 18 18 18 19 20 20 20 22 23
21 22 21 21 20 20 19 17 18 20 23 27 27 24 31 38 41 44 46 46 43 37 32 34 35 33 31 30 30 29 27 25 22 19 18 17 17 18 16 17 18 18 17 16 16 17 17 16 16 16 16 16 17 17 16 15 14 14 14 15 16 17 18 18 18 17 16 16 18 19 19 19 19 18 18 19 19 20 19 20 21 21 22 24 25
20 21 20 19 17 17 18 19 21 23 27 29 28 32 40 43 44 45 45 45 42 35 31 34 35 34 34 33 31 30 29 27 23 20 19 16 16 17 17 20 21 21 20 18 18 18 17 17 17 17 18 20 20 19 17 16 16 17 17 18 18 18 18 18 17 17 16 17 18 18 18 19 19 19 20 21 22 22 21 20 21 22 23 24 24
19 20 20 18 17 18 18 20 21 22 27 32 34 38 42 43 42 41 38 38 38 33 30 31 33 33 34 33 29 29 30 27 24 23 20 15 14 16 20 23 23 22 21 19 19 18 17 17 17 16 17 18 17 16 17 17 16 17 18 20 20 20 19 18 17 17 17 18 18 18 18 20 21 20 21 22 22 21 19 18 20 22 21 20 20
18 19 19 17 18 19 19 20 23 24 27 34 38 39 41 40 37 34 30 29 30 27 25 28 32 32 31 29 26 28 30 27 25 24 20 16 15 17 21 24 24 23 21 19 19 19 17 17 16 13 14 16 16 16 17 17 17 17 18 20 21 20 19 18 17 17 17 17 18 18 18 19 21 20 20 21 21 19 18 19 21 21 21 20 21
18 18 18 17 18 20 19 21 24 26 29 35 38 38 38 37 35 30 25 23 25 26 25 26 30 30 26 24 26 29 29 26 26 24 20 17 18 17 20 24 25 25 23 21 20 19 17 16 14 14 15 17 17 15 14 13 13 15 17 18 19 18 17 17 17 17 17 15 16 17 17 17 19 19 19 20 21 20 19 20 21 22 23 23 24
17 16 17 18 17 19 20 22 25 27 28 32 36 35 34 34 32 28 22 21 24 26 25 25 26 27 27 27 28 28 26 25 26 23 18 18 19 17 20 24 26 26 24 23 22 20 17 14 13 14 13 12 11 11 11 10 10 12 14 16 17 17 17 17 17 17 16 14 14 15 16 16 18 19 20 20 21 21 21 22 22 24 25 25 26
16 16 17 17 17 19 20 21 24 25 25 28 31 33 34 33 30 25 22 22 23 24 25 25 24 26 30 29 27 25 24 24 24 20 19 20 17 16 20 24 26 27 27 27 25 20 15 13 14 15 13 10 11 12 11 10 10 11 13 15 16 17 18 17 16 16 15 15 15 16 17 18 19 21 21 20 20 21 21 21 22 23 25 25 26
16 15 16 16 17 20 20 20 21 22 23 25 26 28 31 31 27 24 23 23 23 22 23 24 24 26 28 26 24 23 22 24 23 19 20 20 16 17 20 22 23 25 27 27 23 19 16 15 17 16 13 11 13 14 14 12 12 11 13 15 16 16 16 15 15 17 16 16 17 18 20 21 22 24 23 21 20 18 18 20 21 21 22 23 23
15 15 15 16 17 19 19 19 19 20 22 23 24 25 27 26 24 24 25 25 25 24 24 24 26 28 24 20 22 22 21 24 25 20 18 18 16 18 20 19 20 23 25 25 20 15 14 16 17 14 11 10 13 14 13 13 11 11 13 14 14 14 14 14 15 16 16 17 19 21 21 22 22 23 22 20 19 16 16 19 20 20 21 18 18
14 14 15 16 16 16 17 18 18 19 20 22 23 24 24 24 23 22 21 20 21 23 23 21 23 25 21 17 20 19 18 23 25 20 17 16 15 17 18 18 20 24 26 23 16 12 12 16 16 12 9 10 14 13 12 12 11 10 12 12 12 13 13 13 14 15 17 19 21 21 21 21 21 22 22 21 20 17 17 19 19 21 22 19 19
13 13 14 15 14 14 15 15 16 17 18 20 21 20 20 22 22 21 19 18 18 21 23 21 20 19 16 15 18 18 17 20 22 20 17 14 14 17 19 18 20 23 22 18 16 15 14 13 13 12 11 12 14 13 12 12 10 9 10 11 13 13 12 13 15 16 18 20 20 19 20 19 20 20 21 21 20 19 19 20 19 21 22 22 24
11 12 12 13 13 12 12 13 14 14 15 15 16 16 17 18 19 19 18 18 19 21 22 20 19 18 15 15 16 16 16 16 18 17 14 13 16 20 21 20 19 18 16 16 18 18 13 10 10 11 12 12 13 12 12 12 10 9 9 11 14 14 12 12 14 16 18 19 19 19 19 19 19 20 20 20 19 19 19 19 20 22 23 25 27
11 12 12 12 12 11 11 11 12 11 12 13 14 14 14 15 16 19 19 17 18 20 19 17 16 17 16 16 14 12 12 12 12 12 12 14 18 20 20 19 19 18 17 20 23 21 15 10 9 10 10 10 12 11 11 11 11 9 8 11 14 13 12 13 13 15 17 18 18 18 18 18 18 18 19 19 18 18 20 20 20 22 23 25 26
10 10 11 11 10 10 10 10 10 11 12 14 15 14 14 15 17 19 20 18 17 19 19 17 17 18 18 17 14 11 11 12 12 13 14 16 18 18 17 17 17 17 17 18 20 19 14 8 7 9 9 9 10 10 10 11 10 9 9 11 11 11 12 13 13 14 16 16 17 18 18 18 19 19 18 19 18 18 19 19 20 21 22 23 24
10 10 10 11 10 10 10 11 11 10 10 12 14 14 14 15 17 18 19 19 19 19 19 19 18 18 17 15 13 12 13 14 14 15 16 17 18 18 17 17 16 14 13 12 14 13 8 5 7 9 8 8 8 9 9 9 8 8 8 8 8 10 12 12 12 14 15 15 17 18 18 18 19 19 18 18 18 18 19 20 22 22 22 23 24
12 11 11 12 11 11 11 12 12 10 10 11 12 13 14 15 16 17 17 17 18 18 18 18 17 16 14 12 11 12 14 14 14 15 15 16 18 18 17 15 14 13 12 10 9 7 5 6 9 8 7 7 8 8 8 8 7 7 7 8 9 10 11 11 12 14 15 15 16 17 17 17 17 17 18 18 19 20 21 22 22 21 22 23 25
14 13 13 13 13 12 13 13 13 12 11 12 13 13 14 15 15 16 16 17 17 16 15 15 15 13 11 9 9 10 13 13 12 14 15 15 16 16 15 13 13 13 12 9 7 7 7 8 8 6 6 6 6 5 6 6 5 6 8 9 10 10 11 11 12 12 13 14 15 15 16 15 16 17 18 19 20 21 21 21 20 21 22 22 23
14 14 14 14 14 14 14 15 15 13 12 12 13 14 14 14 14 15 16 17 15 14 13 13 13 12 9 8 8 8 11 14 13 14 16 17 16 14 13 13 14 14 13 11 9 8 7 6 5 5 5 5 4 5 6 7 7 8 10 10 10 10 10 10 10 10 11 13 13 14 15 15 17 18 18 19 19 19 19 19 20 20 21 20 21
15 15 14 14 14 15 15 15 14 14 14 14 13 14 14 13 14 15 16 16 15 13 12 11 11 11 10 10 9 9 11 14 15 15 15 15 15 14 13 14 14 13 12 10 7 4 3 2 3 4 3 3 4 6 7 7 8 9 9 9 9 10 9 9 9 10 11 13 13 14 16 16 17 18 17 17 18 18 17 18 19 19 20 20 21
15 15 15 15 15 14 14 14 14 14 14 13 12 13 14 14 15 15 15 15 14 13 13 12 11 11 10 9 10 12 13 14 15 14 13 12 13 13 13 14 13 11 9 7 5 5 3 2 4 4 4 4 5 6 7 7 8 9 10 10 11 10 9 9 10 10 11 12 13 14 16 16 16 17 16 16 17 17 17 17 18 19 19 20 21
15 15 15 15 14 14 14 13 13 14 13 11 11 12 11 10 11 11 12 12 11 10 10 10 8 8 8 9 11 13 14 14 14 15 15 15 14 13 13 12 11 9 9 8 7 5 5 6 6 6 6 7 7 8 9 10 10 10 10 10 11 11 9 9 10 10 10 11 13 15 15 15 15 15 16 16 16 16 16 17 17 18 18 18 20
14 15 14 13 14 14 13 13 13 13 13 11 12 12 9 8 8 8 9 11 10 7 6 8 8 7 7 9 13 13 11 12 15 17 18 18 16 14 12 11 10 9 10 9 7 6 8 9 8 8 8 9 10 10 10 11 12 11 11 11 11 11 10 9 10 10 10 12 13 14 14 14 14 14 14 15 16 16 16 16 17 17 17 18 19
13 13 12 12 13 13 12 13 13 13 12 12 12 12 10 9 8 7 7 8 8 8 7 9 10 8 6 7 12 11 7 9 14 17 16 15 13 11 10 10 10 10 9 7 6 7 9 9 9 10 10 10 11 11 11 11 12 12 12 12 11 10 10 9 8 9 11 12 13 13 12 13 13 14 14 15 16 17 16 16 16 16 16 18 19
11 11 11 13 14 13 12 13 13 13 12 13 13 12 10 9 8 7 6 6 7 7 7 7 9 10 9 8 9 10 9 11 13 14 13 11 10 9 9 9 9 9 7 6 6 8 10 10 10 11 10 10 11 11 11 11 12 12 12 11 10 9 9 8 8 10 11 12 11 11 12 12 13 13 14 15 15 16 16 16 15 15 17 18 17
10 11 11 13 13 13 12 13 13 13 13 13 13 11 10 9 9 8 7 6 5 5 5 6 7 9 11 11 9 10 12 13 13 12 11 10 10 9 9 8 8 7 6 6 6 8 8 8 9 10 10 11 11 11 11 11 11 11 11 10 10 9 8 8 9 10 10 10 10 11 11 12 12 13 14 14 15 15 15 15 15 15 16 17 17
9 10 11 13 13 12 11 12 12 12 12 12 11 10 9 9 9 11 9 7 5 3 3 5 6 7 9 10 9 10 13 13 11 11 11 10 10 9 9 8 7 6 6 6 6 7 7 8 9 10 10 10 10 11 11 11 11 11 11 10 9 9 8 8 8 9 9 9 10 10 10 11 12 13 14 14 14 15 15 15 15 15 15 16 17
8 8 10 11 11 10 10 11 10 10 10 10 10 10 9 8 9 10 10 7 6 6 6 7 8 10 11 12 11 11 12 12 11 11 10 10 10 10 9 8 6 5 5 5 6 7 9 10 9 9 9 9 10 11 11 10 11 11 10 9 8 8 8 8 8 8 8 9 10 9 10 11 12 12 13 14 14 14 14 14 15 15 15 15 16
7 9 9 9 8 8 9 9 9 9 10 10 10 9 9 8 8 8 8 6 6 7 9 10 11 12 12 12 13 13 13 12 12 11 10 10 11 10 7 6 6 5 5 6 7 8 9 9 8 8 9 9 10 10 10 10 10 10 8 8 8 8 7 7 7 7 8 9 9 9 10 11 11 12 13 14 14 14 14 15 15 15 15 15 16
7 8 9 8 7 7 8 8 8 9 9 9 9 8 7 7 6 6 6 6 7 8 9 11 12 12 11 12 13 14 14 13 13 13 12 11 11 9 6 5 5 5 6 7 8 8 8 8 8 9 9 9 10 10 9 9 9 8 7 7 7 7 7 6 7 7 8 9 9 9 10 11 11 12 13 13 14 14 14 15 15 15 16 16 16
6 6 7 7 6 6 6 7 8 9 9 8 7 6 5 5 4 5 5 5 6 7 8 10 11 10 11 13 14 14 14 14 13 13 12 11 10 8 6 5 5 6 8 8 8 8 9 9 9 9 9 9 9 9 9 8 8 7 7 6 6 6 7 7 7 7 7 8 8 8 10 10 11 12 13 13 13 14 14 15 15 15 16 16 16
6 6 7 7 5 4 5 7 7 7 7 6 5 5 4 3 4 4 5 5 7 7 7 8 9 9 11 14 16 16 15 13 12 11 11 10 9 8 7 6 6 7 8 8 8 9 9 9 8 8 8 8 8 8 8 7 7 6 6 7 7 6 6 6 6 6 7 8 8 8 9 10 11 12 13 13 13 14 14 15 15 15 16 16 16
6 5 5 6 5 4 5 7 7 7 6 6 5 5 5 4 4 5 5 6 7 7 6 7 7 7 10 14 17 17 15 12 10 10 10 10 10 9 8 8 8 8 8 9 8 8 8 8 7 7 7 7 7 7 7 7 7 7 6 6 6 5 5 5 5 6 6 7 8 9 9 10 11 12 12 12 13 14 14 14 14 15 15 16 16
6 5 5 6 7 7 7 7 7 7 6 6 6 6 6 6 5 5 6 6 6 6 6 5 5 6 9 13 17 18 14 10 10 10 10 10 10 10 9 9 9 8 8 9 8 8 7 7 6 6 7 7 7 6 6 6 6 6 6 6 6 5 5 5 5 5 6 7 8 8 9 10 11 12 12 13 13 14 14 13 14 15 15 15 15
6 6 7 8 9 9 9 9 9 9 8 8 7 7 6 6 5 5 5 5 5 5 5 5 5 5 7 12 17 17 13 10 11 12 11 11 11 9 9 9 9 8 8 8 8 7 7 6 6 6 6 6 6 6 6 6 6 6 6 5 5 5 5 5 4 5 6 7 7 8 9 10 11 11 12 12 13 13 13 14 13 14 15 15 15
8 9 9 10 10 11 11 12 12 11 10 9 8 7 6 5 4 4 4 4 4 4 5 6 5 5 6 10 16 17 14 11 12 12 10 10 10 9 9 9 9 8 7 7 7 7 6 6 6 6 5 5 5 5 5 5 5 5 5 5 5 5 5 5 5 5 6 6 7 8 9 10 11 11 11 12 12 13 13 13 13 14 14 15 14
11 12 12 11 11 12 12 12 13 12 12 11 10 8 6 4 3 4 5 4 3 3 4 4 5 6 7 10 15 17 14 12 11 10 9 10 10 9 9 9 8 7 7 6 6 6 6 6 6 6 5 5 4 4 5 5 4 5 5 4 4 5 5 5 5 5 6 6 7 8 9 9 10 10 10 11 12 13 13 13 13 14 14 14 14
13 15 14 13 12 11 11 11 12 12 11 11 10 8 6 4 4 4 4 4 4 4 5 5 6 7 8 11 15 16 14 12 12 11 11 12 12 10 9 8 7 6 7 7 6 6 6 6 6 6 5 5 4 4 4 4 4 4 4 4 4 4 4 4 4 5 5 6 7 8 9 9 9 10 10 12 12 12 12 13 13 13 13 14 14
13 15 14 12 10 9 10 11 11 11 9 8 7 7 6 5 4 4 4 3 4 5 5 5 6 7 8 11 13 14 14 14 13 13 12 12 11 9 8 7 7 7 7 7 6 7 7 6 6 6 5 5 4 4 4 4 4 4 4 4 4 4 4 4 4 5 5 6 7 8 8 9 9 9 10 11 12 12 12 13 13 13 13 13 14
12 13 13 12 10 10 10 10 10 8 7 6 6 6 6 5 5 5 4 2 2 4 5 5 5 6 7 8 10 11 13 14 13 13 12 11 10 9 8 8 7 7 7 7 7 7 8 7 7 6 6 5 5 5 5 4 4 4 4 3 3 4 5 5 4 5 5 6 7 8 8 9 9 9 9 11 11 11 12 12 12 12 13 13 13
10 11 11 11 11 10 9 9 8 7 6 6 6 5 5 5 4 4 3 3 2 3 4 5 5 6 6 7 8 9 11 12 12 11 11 11 11 10 9 8 8 8 8 8 8 8 8 8 8 7 6 6 6 6 5 4 4 4 3 3 4 6 8 8 6 5 6 6 7 7 8 9 9 9 9 10 11 11 12 12 12 12 12 12 13
8 9 8 9 9 9 9 8 8 7 6 6 6 5 5 4 3 3 3 3 3 4 5 5 6 6 6 7 8 8 9 10 10 10 11 11 11 10 9 9 9 8 8 9 9 9 9 9 8 8 7 6 6 6 6 5 4 3 3 4 6 7 7 7 7 7 6 6 7 8 8 8 8 9 9 9 10 10 11 11 12 12 12 11 12
7 8 8 8 8 8 8 7 7 6 6 6 5 5 4 3 3 2 3 4 5 5 6 7 7 7 8 8 8 8 9 10 10 10 10 11 11 10 10 10 9 9 9 9 9 10 10 10 9 9 8 7 7 7 7 6 5 4 4 5 5 6 6 6 7 7 6 5 6 7 7 7 8 8 8 9 9 9 10 11 11 11 11 10 11
6 6 6 6 6 6 6 6 6 6 5 4 4 4 3 2 2 2 2 3 4 5 5 6 7 8 9 10 9 9 10 10 9 9 11 11 11 11 11 11 10 10 10 10 10 10 10 10 10 10 9 8 8 8 7 6 6 7 7 5 3 5 6 6 6 6 5 5 5 6 7 7 7 7 8 8 8 9 10 10 11 11 10 10 10
Wind_Direction
202 203 203 204 204 202 204 205 208 216 220 218 216 208 200 203 205 205 210 209 199 199 202 202 205 209 210 209 210 210 210 210 210 208 211 215 219 229 239 240 241 243 241 241 242 243 246 249 253 257 261 264 266 268 268 268 270 271 270 267 264 263 262 265 272 282 289 291 291 288 286 287 286 284 283 283 285 284 279 274 274 275 276 278 280
202 202 202 202 202 201 202 201 205 212 216 217 213 202 199 209 211 210 213 212 204 203 206 204 204 206 206 208 213 215 214 214 215 214 213 217 221 229 240 243 243 243 243 242 241 241 245 250 254 257 259 262 264 265 267 272 276 275 273 268 266 266 264 265 270 277 284 288 291 291 289 287 286 284 283 284 284 285 281 277 275 276 276 276 277
202 200 200 200 201 202 201 200 203 209 214 215 209 201 202 209 213 213 212 209 206 209 210 208 207 204 202 205 210 214 215 217 221 220 217 219 223 230 239 243 243 242 243 244 243 245 250 254 257 258 259 260 259 261 268 275 277 278 277 273 269 269 269 265 265 271 278 284 288 292 292 291 288 286 284 282 280 280 280 280 279 279 279 279 280
202 198 198 199 199 199 201 202 203 206 209 210 207 204 202 201 205 213 214 206 208 214 211 208 209 204 202 206 207 207 209 214 222 224 222 222 225 232 239 241 242 243 245 247 248 251 256 257 259 260 259 259 259 262 269 274 274 274 276 274 269 268 270 266 261 265 274 279 283 287 291 291 289 286 284 281 277 276 277 280 281 280 282 284 285
202 199 198 200 198 199 203 203 200 202 206 208 207 204 197 184 193 213 217 211 214 218 214 212 211 206 207 210 208 205 205 206 215 222 222 224 226 232 238 240 241 243 243 246 249 253 257 258 258 258 256 256 259 264 271 275 275 274 275 276 272 269 269 268 264 265 270 276 281 285 288 287 288 288 283 280 279 278 278 279 280 281 284 286 286
202 200 200 200 199 201 203 201 199 201 205 205 194 180 180 188 201 214 219 217 219 221 219 216 212 209 212 210 203 206 207 203 207 213 218 224 228 233 237 240 243 244 244 247 250 253 255 255 255 254 253 255 259 265 273 278 277 276 276 275 275 275 273 271 269 268 268 273 278 281 283 285 287 289 286 282 283 284 285 284 283 283 286 287 287
201 201 203 202 202 204 203 199 197 195 193 186 173 173 190 205 214 220 222 221 220 220 219 216 212 211 212 205 199 205 206 201 203 210 220 229 233 235 238 242 244 246 246 249 253 255 255 253 251 251 250 253 260 268 275 279 280 280 278 277 278 280 279 277 276 274 272 274 274 275 282 288 287 287 287 285 282 283 286 290 290 290 290 290 291
199 200 204 206 205 204 202 198 189 181 179 174 171 183 208 218 222 223 221 219 219 217 215 212 211 212 209 204 204 207 205 201 205 216 227 236 242 243 242 245 248 250 251 253 255 257 256 252 251 253 254 255 258 264 271 276 281 283 283 284 284 285 285 285 284 282 280 278 276 277 285 290 288 287 287 285 283 286 290 293 294 294 293 294 293
197 200 204 205 204 204 201 187 173 176 179 170 170 198 221 222 222 220 217 217 217 213 208 208 211 211 207 206 209 209 207 204 206 220 229 234 245 249 249 252 255 255 254 255 257 257 257 256 256 257 260 257 256 260 266 271 274 276 279 282 284 287 290 291 290 289 287 285 283 285 289 290 290 291 290 288 290 295 297 295 293 294 296 296 294
197 200 202 202 202 202 190 169 164 178 185 180 188 213 223 222 222 219 214 215 215 210 204 206 210 208 207 208 207 207 208 202 200 216 230 234 247 257 261 262 262 260 257 256 257 257 258 260 259 259 260 258 257 261 267 270 272 273 273 274 278 283 288 290 291 291 290 288 289 292 294 293 293 295 294 293 295 297 298 296 295 298 300 297 295
195 198 201 199 198 197 182 166 167 177 187 194 204 217 223 224 222 219 215 213 212 208 202 202 203 202 203 205 202 203 208 202 197 210 223 228 240 257 268 270 269 265 260 256 255 256 259 263 263 258 252 251 257 265 270 271 275 276 273 272 274 276 278 281 284 287 289 289 289 291 292 292 295 296 295 295 298 300 302 300 298 300 300 296 296
194 197 202 200 197 198 186 171 170 177 189 204 212 218 224 225 222 219 215 211 208 204 198 198 200 199 199 198 195 199 205 201 198 208 218 219 225 246 266 272 271 268 263 257 256 257 260 262 259 247 241 251 263 268 268 272 278 280 278 276 276 277 278 277 278 281 285 286 288 289 290 291 293 294 294 298 301 303 301 298 297 298 295 293 294
194 196 199 198 198 201 189 171 172 181 193 207 215 218 222 223 222 218 212 207 206 203 200 200 200 197 195 192 193 200 204 200 200 210 217 214 216 236 261 271 270 266 262 259 259 259 258 256 252 245 249 263 269 262 257 263 271 276 277 276 278 282 284 283 283 285 283 281 283 286 287 289 289 289 293 298 300 300 299 298 299 298 294 292 291
195 194 194 195 197 200 189 174 176 185 194 204 211 214 218 221 221 218 209 202 203 203 201 199 196 195 195 196 198 200 200 200 208 216 215 209 214 233 255 266 268 265 261 260 260 260 256 251 254 256 258 260 257 248 250 257 260 264 268 272 277 283 285 284 286 287 282 275 275 281 284 285 286 289 294 298 298 299 299 298 297 295 293 290 289
193 192 193 194 194 197 192 180 182 190 195 201 207 211 217 222 222 217 209 204 203 202 200 197 193 193 197 199 199 196 195 204 216 222 215 212 225 246 261 269 273 271 266 262 261 260 256 258 270 271 266 257 248 244 247 256 262 264 268 274 280 285 287 285 283 283 281 277 279 285 288 288 288 290 294 298 298 296 296 292 289 289 288 287 286
190 189 191 192 193 198 194 184 187 195 197 201 207 212 217 221 219 213 210 208 204 200 197 195 190 189 193 194 192 191 197 209 221 226 219 219 237 261 271 279 279 273 269 267 264 257 253 265 273 269 261 255 250 251 255 260 264 266 270 277 282 286 288 287 286 288 289 288 287 289 291 291 292 292 294 298 298 294 292 289 285 284 283 283 285
187 187 190 191 193 197 192 185 192 199 200 203 209 214 219 220 215 210 210 210 208 201 195 190 186 184 183 185 190 194 201 211 218 224 223 226 248 268 277 281 275 272 274 274 268 254 256 272 272 259 252 249 248 255 263 264 264 266 272 279 284 286 287 289 292 295 298 298 296 294 295 296 298 298 300 302 301 295 287 285 286 286 285 284 286
183 185 187 187 189 193 189 187 195 203 205 208 212 216 220 220 216 213 209 207 204 198 190 182 179 179 177 179 190 199 206 213 219 225 225 232 256 276 281 281 279 280 280 276 267 260 273 283 274 252 240 244 249 256 262 263 264 267 272 280 283 283 288 294 297 297 299 300 298 298 299 300 300 301 302 302 301 291 275 273 281 287 288 288 290
178 179 179 178 180 188 189 190 198 205 208 211 214 215 216 219 220 217 208 197 189 184 181 176 175 179 183 188 199 206 211 218 225 227 226 235 259 273 277 279 280 280 278 275 276 274 271 271 263 247 236 239 248 254 258 261 262 263 272 282 284 284 292 298 298 295 295 295 295 295 297 297 297 298 296 294 294 287 273 269 277 283 285 288 292
167 167 167 167 170 179 187 193 201 207 206 205 209 212 213 216 216 208 196 186 179 176 174 174 178 187 194 198 204 209 212 220 228 228 229 247 262 266 269 268 261 257 261 277 288 282 262 242 245 249 245 243 248 253 257 258 259 260 272 281 282 283 290 295 294 292 291 291 292 294 294 294 294 294 292 291 290 287 282 280 283 285 286 289 291
153 154 155 157 162 170 181 190 193 193 190 191 197 203 205 206 202 192 186 180 175 176 177 179 187 196 199 199 202 210 221 232 237 234 238 251 256 255 255 252 245 242 254 275 283 276 258 233 228 242 249 247 247 251 257 261 263 264 265 267 268 269 277 288 292 289 288 289 293 295 296 297 297 296 295 294 292 292 291 290 290 288 288 289 291
144 145 146 149 156 164 169 171 169 170 180 191 197 199 202 201 193 186 185 182 175 177 183 190 198 202 202 201 204 220 238 242 238 235 239 243 246 246 244 246 251 255 260 270 272 265 252 230 224 241 249 245 245 251 257 262 268 267 257 255 259 268 281 289 288 286 287 291 295 298 299 300 299 299 298 297 296 297 296 294 291 289 287 285 286
137 136 138 144 151 156 158 158 155 160 176 187 189 191 196 195 187 182 185 185 180 182 189 195 199 200 198 197 204 221 232 231 228 232 238 243 247 247 245 249 259 258 251 254 256 252 245 234 239 245 244 242 247 253 256 261 266 262 255 260 275 288 290 285 280 283 289 292 294 295 297 297 298 299 299 298 299 299 297 293 291 288 286 284 281
135 134 137 141 144 145 149 152 152 153 163 169 173 179 183 183 183 184 186 186 186 187 189 190 192 191 188 187 198 212 218 222 231 239 240 242 245 246 247 252 251 240 240 253 257 246 231 230 237 243 246 247 249 249 253 262 258 248 260 282 292 289 281 273 277 286 290 291 292 292 294 296 297 297 297 297 297 297 294 292 290 288 287 285 283
138 139 140 139 139 140 142 147 149 151 157 162 166 170 172 174 178 181 184 190 192 189 186 187 189 189 189 186 188 203 217 227 239 241 234 231 237 242 243 241 230 221 228 241 239 228 232 238 243 250 252 248 251 256 264 273 271 271 288 294 284 273 268 270 280 287 287 288 291 292 294 295 295 295 296 295 295 295 294 293 292 292 292 289 287
138 141 140 137 138 140 142 147 150 151 153 159 164 165 168 174 178 181 188 194 193 189 188 189 191 194 200 198 186 196 220 225 225 229 228 226 228 229 225 220 214 211 216 226 233 238 243 245 245 246 247 245 242 240 247 260 275 291 301 295 275 264 265 274 283 286 287 290 293 293 295 296 296 296 295 294 294 294 295 297 298 298 298 299 297
140 140 138 136 138 142 145 148 150 151 154 160 166 168 173 180 183 187 195 195 191 191 191 188 191 198 202 199 189 190 206 211 210 213 217 216 214 211 208 209 207 205 208 217 225 223 224 260 270 252 252 267 248 231 237 255 273 283 285 280 271 266 269 279 284 284 286 290 291 293 295 296 296 296 295 296 296 297 299 300 300 301 304 306 305
142 140 138 138 140 144 148 149 151 157 161 162 165 168 173 182 188 193 198 196 193 195 194 190 193 196 192 187 187 193 201 207 208 204 195 188 188 192 195 198 199 201 203 196 182 182 203 293 306 275 262 278 270 252 249 255 265 273 275 277 277 272 270 277 281 280 282 287 290 294 295 295 295 296 298 299 299 301 304 302 301 303 307 310 309
140 140 141 142 141 143 150 155 158 162 160 151 150 158 166 178 185 186 189 193 195 192 187 185 186 187 190 192 194 201 209 212 208 198 183 172 170 175 183 186 187 197 209 202 194 209 234 253 264 261 260 265 265 261 259 257 257 261 267 275 279 277 274 280 284 285 287 290 292 294 295 296 298 299 300 301 302 305 307 304 303 306 308 310 311
142 142 142 143 143 146 155 161 162 165 161 148 145 154 163 175 177 170 176 193 203 199 179 169 167 172 192 201 201 207 213 207 200 192 181 175 176 179 186 193 195 207 222 222 220 236 253 258 260 261 258 258 260 265 271 275 274 275 279 281 279 276 277 283 288 292 295 294 292 293 295 296 299 300 302 304 306 308 308 306 306 307 309 313 316
144 144 143 141 142 150 159 160 161 164 162 157 158 161 165 173 180 183 188 199 210 212 199 185 184 189 189 186 195 204 201 187 188 185 178 179 187 194 202 210 216 221 226 221 218 235 253 259 256 250 248 254 265 274 280 283 284 286 287 286 281 276 277 283 292 298 298 294 291 292 295 295 297 301 304 306 307 309 311 311 311 311 314 319 320
143 144 142 138 143 156 162 161 166 166 158 161 170 169 164 165 170 183 198 201 202 207 208 208 217 222 216 203 208 213 200 181 178 178 179 188 196 201 208 212 215 218 213 206 222 243 254 256 255 256 259 265 275 283 286 287 286 286 286 283 281 283 287 294 300 298 293 292 292 294 294 295 298 302 303 305 308 309 312 315 316 318 321 322 320
143 145 145 144 152 165 165 162 169 170 164 170 180 180 179 178 167 158 164 177 187 203 219 226 229 227 219 215 220 213 195 181 175 178 185 191 191 193 198 198 198 201 198 204 229 246 253 258 263 268 271 273 276 280 282 281 281 284 285 282 283 288 293 297 296 290 284 286 290 292 293 297 302 303 305 308 309 310 313 317 319 322 324 324 321
141 141 148 153 160 168 167 164 169 169 167 174 181 182 185 183 167 153 150 153 159 165 182 195 194 194 192 189 187 186 182 177 176 181 182 180 180 183 184 184 187 191 194 211 235 244 248 259 268 271 274 277 278 279 280 278 276 278 281 281 285 291 293 292 288 285 286 289 289 291 297 303 305 306 308 311 311 311 314 318 321 324 326 325 322
138 133 143 152 159 162 161 161 163 164 165 170 176 178 177 171 164 163 164 169 169 155 143 150 163 168 168 162 158 164 170 170 171 172 169 170 173 172 170 172 176 180 193 214 235 246 255 266 273 271 270 272 271 273 275 274 274 275 278 282 289 292 290 288 285 286 292 294 292 296 304 304 305 307 310 311 312 314 316 319 323 325 324 322 321
148 144 147 151 152 149 149 152 156 158 161 166 169 171 172 172 175 178 181 189 184 160 142 141 150 156 157 155 155 158 161 162 162 159 159 164 163 157 161 180 186 189 209 222 231 247 260 267 266 261 260 263 267 269 270 271 273 274 276 283 292 291 286 286 290 293 294 293 292 299 304 304 307 312 312 312 313 314 317 321 323 323 323 323 319
160 156 154 153 145 136 136 143 150 150 149 154 161 166 170 176 185 192 193 193 186 166 147 143 146 149 150 155 160 162 161 161 159 155 155 158 156 156 176 209 218 233 244 240 241 253 258 254 252 255 257 259 263 266 267 267 268 269 270 276 281 282 281 286 291 292 292 293 296 303 307 307 311 315 313 314 316 316 319 324 322 321 324 323 319
141 137 141 145 145 146 148 148 150 151 150 151 159 168 174 180 191 200 198 186 177 170 158 154 158 162 159 161 167 168 164 159 155 153 157 162 164 172 194 215 233 250 251 243 239 245 248 245 248 253 255 259 263 264 263 263 263 266 273 272 264 264 270 276 277 277 284 292 299 306 310 311 314 317 315 314 316 319 321 324 323 323 325 325 325
135 136 147 153 156 170 169 155 149 154 160 163 166 173 179 184 187 191 191 182 177 179 173 169 178 182 168 163 168 171 168 163 161 162 168 174 181 192 206 220 232 243 250 250 244 240 241 246 248 247 249 254 256 251 251 259 264 267 271 268 259 257 262 268 273 278 286 298 307 311 313 314 315 317 316 315 319 323 322 322 325 327 326 326 329
152 152 172 178 169 160 153 147 146 154 163 165 161 157 160 167 174 180 184 183 184 190 188 184 193 191 172 170 175 177 175 175 177 176 176 182 191 201 215 228 235 236 243 251 247 234 232 236 232 228 232 236 237 237 244 257 264 261 258 256 255 256 260 267 279 290 295 304 310 310 312 316 317 317 318 319 321 322 320 320 326 328 325 326 330
149 137 148 160 153 143 141 143 142 142 144 147 147 148 153 161 169 180 187 188 191 197 200 206 212 200 188 192 192 186 180 181 185 183 186 194 202 211 219 228 235 238 241 245 239 226 223 222 212 211 218 221 226 235 243 251 258 256 248 245 248 256 264 266 275 291 298 304 310 311 313 317 317 315 318 320 320 320 321 324 329 330 329 330 333
151 134 139 150 151 146 143 138 132 129 134 142 145 145 149 156 164 174 186 196 207 215 226 238 235 205 201 211 207 194 186 192 195 194 202 209 209 212 219 226 235 243 243 241 231 219 213 212 208 211 216 215 220 236 245 248 253 249 243 244 247 253 267 273 276 289 297 300 307 312 312 313 313 312 314 319 321 323 326 329 331 334 334 334 336
148 141 143 148 148 145 143 141 139 138 140 139 132 126 132 150 177 195 201 207 228 248 254 252 230 189 189 211 208 198 197 208 208 203 211 216 209 207 216 226 237 241 236 230 218 205 204 210 211 210 212 212 219 238 247 248 249 244 241 247 250 253 268 280 281 290 299 303 309 312 309 309 313 314 317 322 325 325 327 331 335 338 339 337 339
142 140 139 140 142 143 142 141 140 136 133 130 127 127 138 165 208 227 223 209 216 248 250 230 207 188 180 193 200 200 205 218 220 213 211 213 211 213 221 229 235 231 220 211 202 195 200 210 208 204 207 210 216 234 243 241 242 244 244 249 252 254 266 276 280 293 304 306 308 310 309 311 314 316 321 327 327 325 329 334 337 340 341 339 341
141 138 136 138 141 138 133 132 132 130 129 129 130 136 153 179 206 224 223 201 193 216 224 213 210 204 186 183 193 200 205 214 222 220 213 210 213 221 227 229 225 214 205 198 194 194 203 209 205 203 205 209 214 226 232 229 233 238 243 249 253 257 265 272 279 292 302 304 306 308 309 313 317 320 325 328 326 327 332 335 336 340 342 340 341
132 129 130 133 133 129 127 127 126 124 128 136 141 147 160 177 185 190 195 192 199 217 223 220 221 220 202 191 195 202 205 212 221 225 221 216 216 220 220 213 203 199 199 195 190 193 201 206 207 205 206 210 214 216 217 221 228 232 238 246 252 262 272 274 278 287 291 296 303 307 309 313 316 318 324 326 325 328 332 333 335 341 342 341 343
116 119 124 127 128 131 133 130 126 131 145 153 152 154 160 165 170 173 174 180 208 226 231 232 231 229 222 213 210 211 214 220 226 228 224 218 216 214 208 197 190 192 196 192 190 195 201 204 206 207 207 208 211 213 217 221 222 226 237 243 244 252 255 253 265 291 294 293 300 304 306 311 315 318 323 326 326 330 333 332 336 342 342 342 346
121 127 135 138 140 144 143 138 140 154 162 153 147 152 158 159 168 175 169 167 194 222 238 245 242 237 237 236 232 230 230 231 232 229 220 211 208 209 204 194 190 193 194 192 193 198 202 202 203 205 205 207 210 212 215 217 219 224 236 238 239 250 253 250 254 273 278 281 295 301 300 305 313 316 320 324 325 329 334 335 338 341 341 343 349
129 139 149 153 153 153 154 153 157 162 158 150 151 159 159 158 166 175 182 202 228 239 248 252 249 246 247 245 242 242 240 237 234 229 217 206 205 207 203 194 190 194 197 196 197 200 202 203 203 204 204 207 211 210 208 213 218 217 217 233 253 272 278 265 253 251 255 271 294 298 295 304 313 313 316 321 322 327 335 337 337 339 341 344 351
146 154 162 161 155 151 151 154 156 154 155 159 160 156 155 170 190 203 223 247 254 252 252 254 252 251 250 247 243 243 241 238 236 232 220 209 206 208 205 196 192 196 201 201 200 201 202 202 203 205 206 207 208 207 208 210 210 204 211 237 269 302 309 285 261 250 247 265 290 295 295 303 312 312 317 323 325 328 335 338 336 336 341 347 352
144 151 153 147 141 141 146 152 156 154 156 163 164 158 163 188 210 222 244 261 266 263 264 265 261 257 255 251 246 242 240 238 236 230 221 213 209 210 210 204 197 197 202 203 200 202 204 203 202 205 208 207 207 209 208 205 205 212 224 245 296 335 331 304 274 252 239 245 271 290 295 300 307 311 318 328 331 330 332 334 334 335 341 349 354